Location: Binningen
(47.7924°N, 8.7261°E)
Time: 18:45:37
(UTC+00:00)

SL-08 R/B - Pass Details

Date: 17 May 2021
Orbit: 951 x 1017 km, 82.9° (Epoch: 21 June)

Event Time Altitude Azimuth Distance (km) Brightness Sun altitude
Rises 22:05:07 0° 351° (N) 3,676 9.0 -20.5°
Reaches altitude 10° 22:07:37 10° 352° (N) 2,733 8.0 -20.7°
Maximum altitude 22:13:54 84° 82° (E) 999 4.5 -21.0°
Enters shadow 22:16:28 39° 167° (SSE) 1,447 4.9 -21.1°
